This is the latest recevied weather packets stored in our database for station/object N3TJJ-2. If no packets are shown the sender has not sent any weather packets the latest 1 day(s).
| Time | Temp. | Humidity | Pressure | Rain* | Wind** | Luminosity | Snow |
|---|---|---|---|---|---|---|---|
| 1777957518 | 15° C | 70% | 1011.2 hPa | 0 mm | 0.89 m/s, 26° | - | - |
| 1777957155 | 15° C | 69% | 1011.1 hPa | 0 mm | 0.89 m/s, 17° | - | - |
| 1777956795 | 15° C | 68% | 1011.2 hPa | 0 mm | 0.45 m/s, 28° | - | - |
| 1777956442 | 15.56° C | 68% | 1011.2 hPa | 0 mm | 0.45 m/s, 22° | - | - |
| 1777956134 | 15.56° C | 67% | 1011.2 hPa | 0 mm | 0.89 m/s, 25° | - | - |
| 1777955715 | 16.11° C | 66% | 1011.2 hPa | 0 mm | 1.79 m/s, 24° | - | - |
| 1777955358 | 16.11° C | 65% | 1011.1 hPa | 0 mm | 1.79 m/s, 22° | - | - |
| 1777954998 | 16.11° C | 65% | 1011.1 hPa | 0 mm | 1.34 m/s, 23° | - | - |
| 1777954635 | 16.11° C | 64% | 1011.2 hPa | 0 mm | 1.34 m/s, 42° | - | - |
| 1777953923 | 16.67° C | 63% | 1011.1 hPa | 0 mm | 2.24 m/s, 31° | - | - |
| 1777953555 | 16.67° C | 62% | 1011 hPa | 0 mm | 1.79 m/s, 31° | - | - |
| 1777953198 | 16.67° C | 62% | 1010.9 hPa | 0 mm | 2.24 m/s, 34° | - | - |
| 1777952836 | 16.67° C | 62% | 1010.8 hPa | 0 mm | 2.24 m/s, 33° | - | - |
| 1777952474 | 16.67° C | 62% | 1010.7 hPa | 0 mm | 2.68 m/s, 33° | - | - |
| 1777952119 | 16.67° C | 62% | 1010.7 hPa | 0 mm | 2.68 m/s, 47° | - | - |
| 1777951755 | 16.11° C | 62% | 1010.7 hPa | 0 mm | 2.68 m/s, 42° | - | - |
| 1777951403 | 16.11° C | 62% | 1010.6 hPa | 0 mm | 2.24 m/s, 30° | - | - |
| 1777951039 | 16.11° C | 62% | 1010.6 hPa | 0 mm | 1.34 m/s, 36° | - | - |
| 1777950676 | 16.11° C | 62% | 1010.7 hPa | 0 mm | 1.79 m/s, 31° | - | - |
| 1777950316 | 16.11° C | 61% | 1010.7 hPa | 0 mm | 1.79 m/s, 25° | - | - |
| 1777949954 | 16.11° C | 61% | 1010.8 hPa | 0 mm | 1.34 m/s, 36° | - | - |
| 1777949598 | 16.11° C | 61% | 1010.8 hPa | 0 mm | 1.34 m/s, 24° | - | - |
* Rain latest hour (hover to see other rain measurements)
** Current wind speed in m/s (hover to see current wind gust speed)